Location: Ferintosh
(52.7647°N, 112.9692°W)
Time: 21:37:56
(UTC+00:00)

A-11 Canister half - Pass Details

Date: 27 May 2024
Orbit: 1524 x 1683 km, 47.3° (Epoch: 19 June)

Event Time Altitude Azimuth Distance (km) Brightness Sun altitude
Rises 11:27:34 0° 283° (WNW) 4,804 11.2 0.3°
Reaches altitude 10° 11:33:26 10° 256° (WSW) 3,853 10.5 1.1°
Maximum altitude 11:36:38 12° 236° (SW) 3,707 10.4 1.5°
Drops below altitude 10° 11:39:53 10° 216° (SW) 3,886 10.5 1.9°
Sets 11:45:55 0° 189° (S) 4,898 11.2 2.6°
